TimeEST,TemperatureF,Dew PointF,Humidity,Sea Level PressureIn,VisibilityMPH,Wind Direction,Wind SpeedMPH,Gust SpeedMPH,PrecipitationIn,Events,Conditions,WindDirDegrees,DateUTC
12:15 AM,35.6,10.4,35,30.05,10.0,WNW,6.9,16.1,N/A,,Clear,300,2013-02-20 05:15:00
12:35 AM,35.6,10.4,35,30.05,10.0,WNW,8.1,-,N/A,,Clear,300,2013-02-20 05:35:00
12:55 AM,35.6,12.2,38,30.06,10.0,WNW,6.9,-,N/A,,Clear,290,2013-02-20 05:55:00
1:15 AM,35.6,12.2,38,30.07,10.0,WNW,6.9,-,N/A,,Clear,300,2013-02-20 06:15:00
1:35 AM,33.8,12.2,41,30.07,10.0,NW,4.6,-,N/A,,Clear,310,2013-02-20 06:35:00
1:55 AM,33.8,12.2,41,30.06,10.0,NW,5.8,-,N/A,,Clear,320,2013-02-20 06:55:00
2:15 AM,33.8,12.2,41,30.05,10.0,Calm,Calm,-,N/A,,Clear,0,2013-02-20 07:15:00
2:35 AM,32.0,12.2,44,30.05,10.0,Calm,Calm,-,N/A,,Clear,0,2013-02-20 07:35:00
2:55 AM,32.0,12.2,44,30.04,10.0,West,3.5,-,N/A,,Clear,260,2013-02-20 07:55:00
3:15 AM,32.0,12.2,44,30.05,10.0,West,3.5,-,N/A,,Clear,270,2013-02-20 08:15:00
3:35 AM,32.0,12.2,44,30.05,10.0,WSW,4.6,-,N/A,,Clear,250,2013-02-20 08:35:00
3:55 AM,30.2,12.2,47,30.05,10.0,Calm,Calm,-,N/A,,Clear,0,2013-02-20 08:55:00
4:15 AM,32.0,12.2,44,30.05,10.0,Calm,Calm,-,N/A,,Clear,0,2013-02-20 09:15:00
4:35 AM,30.2,12.2,47,30.05,10.0,Calm,Calm,-,N/A,,Clear,0,2013-02-20 09:35:00
4:55 AM,30.2,12.2,47,30.05,10.0,Calm,Calm,-,N/A,,Clear,0,2013-02-20 09:55:00
5:35 AM,28.4,10.4,47,30.05,10.0,Calm,Calm,-,N/A,,Clear,0,2013-02-20 10:35:00
5:55 AM,26.6,12.2,55,30.05,10.0,Calm,Calm,-,N/A,,Clear,0,2013-02-20 10:55:00
6:15 AM,26.6,12.2,55,30.05,10.0,Calm,Calm,-,N/A,,Clear,0,2013-02-20 11:15:00
6:35 AM,26.6,12.2,55,30.05,10.0,Calm,Calm,-,N/A,,Clear,0,2013-02-20 11:35:00
6:55 AM,28.4,12.2,51,30.06,10.0,ESE,5.8,-,N/A,,Clear,120,2013-02-20 11:55:00
7:15 AM,26.6,12.2,55,30.07,10.0,Calm,Calm,-,N/A,,Clear,0,2013-02-20 12:15:00
7:35 AM,30.2,12.2,47,30.08,10.0,SE,4.6,-,N/A,,Clear,130,2013-02-20 12:35:00
7:55 AM,32.0,12.2,44,30.08,10.0,SE,3.5,-,N/A,,Clear,130,2013-02-20 12:55:00
8:15 AM,32.0,15.8,51,30.07,10.0,North,-9999.0,-,N/A,,Clear,0,2013-02-20 13:15:00
8:35 AM,33.8,12.2,41,30.08,10.0,East,4.6,-,N/A,,Clear,100,2013-02-20 13:35:00
8:55 AM,33.8,12.2,41,30.08,10.0,SE,5.8,-,N/A,,Clear,130,2013-02-20 13:55:00
9:15 AM,35.6,8.6,33,30.09,10.0,SE,4.6,-,N/A,,Clear,140,2013-02-20 14:15:00
9:35 AM,37.4,5.0,26,30.09,10.0,East,3.5,-,N/A,,Clear,90,2013-02-20 14:35:00
9:55 AM,37.4,5.0,26,30.10,10.0,SE,4.6,-,N/A,,Clear,130,2013-02-20 14:55:00
10:15 AM,39.2,5.0,24,30.10,10.0,East,3.5,-,N/A,,Clear,100,2013-02-20 15:15:00
10:35 AM,41.0,6.8,24,30.10,10.0,Calm,Calm,-,N/A,,Clear,0,2013-02-20 15:35:00
10:55 AM,41.0,5.0,23,30.10,10.0,Calm,Calm,-,N/A,,Clear,0,2013-02-20 15:55:00
11:15 AM,42.8,5.0,21,30.10,10.0,Calm,Calm,-,N/A,,Clear,0,2013-02-20 16:15:00
11:35 AM,42.8,3.2,19,30.10,10.0,Calm,Calm,-,N/A,,Clear,0,2013-02-20 16:35:00
11:55 AM,46.4,8.6,22,30.10,10.0,WNW,8.1,16.1,N/A,,Clear,290,2013-02-20 16:55:00
12:15 PM,46.4,8.6,22,30.09,10.0,NNW,4.6,-,N/A,,Clear,330,2013-02-20 17:15:00
12:35 PM,46.4,6.8,20,30.08,10.0,SW,9.2,-,N/A,,Clear,230,2013-02-20 17:35:00
12:55 PM,44.6,3.2,18,30.07,10.0,Calm,Calm,-,N/A,,Clear,0,2013-02-20 17:55:00
1:15 PM,48.2,8.6,20,30.07,10.0,SW,6.9,-,N/A,,Clear,230,2013-02-20 18:15:00
1:35 PM,50.0,8.6,19,30.06,10.0,WSW,3.5,16.1,N/A,,Clear,250,2013-02-20 18:35:00
1:55 PM,50.0,10.4,20,30.05,10.0,SSW,8.1,-,N/A,,Clear,210,2013-02-20 18:55:00
2:35 PM,50.0,5.0,16,30.05,10.0,SSW,4.6,-,N/A,,Clear,200,2013-02-20 19:35:00
2:55 PM,48.2,3.2,16,30.05,10.0,NNW,8.1,-,N/A,,Clear,330,2013-02-20 19:55:00
3:15 PM,50.0,3.2,15,30.05,10.0,NW,10.4,-,N/A,,Clear,320,2013-02-20 20:15:00
3:35 PM,50.0,3.2,15,30.06,10.0,NNW,11.5,-,N/A,,Clear,340,2013-02-20 20:35:00
3:55 PM,46.4,3.2,17,30.06,10.0,NW,6.9,-,N/A,,Clear,310,2013-02-20 20:55:00
4:15 PM,46.4,3.2,17,30.06,10.0,NW,9.2,-,N/A,,Clear,310,2013-02-20 21:15:00
4:35 PM,46.4,1.4,16,30.07,10.0,NW,6.9,17.3,N/A,,Clear,320,2013-02-20 21:35:00
4:55 PM,46.4,1.4,16,30.07,10.0,NW,6.9,-,N/A,,Clear,310,2013-02-20 21:55:00
5:15 PM,44.6,1.4,17,30.09,10.0,WNW,5.8,-,N/A,,Clear,290,2013-02-20 22:15:00
5:35 PM,44.6,1.4,17,30.10,10.0,NW,6.9,-,N/A,,Clear,320,2013-02-20 22:35:00
5:55 PM,42.8,1.4,18,30.10,10.0,NW,10.4,20.7,N/A,,Clear,310,2013-02-20 22:55:00
6:15 PM,42.8,3.2,19,30.12,10.0,WNW,10.4,19.6,N/A,,Clear,300,2013-02-20 23:15:00
6:55 PM,41.0,3.2,21,30.14,10.0,NW,9.2,-,N/A,,Clear,320,2013-02-20 23:55:00
7:15 PM,39.2,5.0,24,30.14,10.0,NW,8.1,-,N/A,,Clear,320,2013-02-21 00:15:00
7:35 PM,39.2,5.0,24,30.14,10.0,NW,8.1,-,N/A,,Clear,320,2013-02-21 00:35:00
7:55 PM,37.4,6.8,28,30.15,10.0,NNW,8.1,-,N/A,,Clear,340,2013-02-21 00:55:00
8:35 PM,37.4,8.6,30,30.15,10.0,NNW,10.4,18.4,N/A,,Clear,340,2013-02-21 01:35:00
8:55 PM,37.4,8.6,30,30.15,10.0,NNW,9.2,19.6,N/A,,Clear,330,2013-02-21 01:55:00
9:15 PM,37.4,8.6,30,30.16,10.0,NW,10.4,-,N/A,,Clear,320,2013-02-21 02:15:00
9:35 PM,35.6,10.4,35,30.16,10.0,North,5.8,-,N/A,,Clear,350,2013-02-21 02:35:00
9:55 PM,35.6,12.2,38,30.16,10.0,North,11.5,-,N/A,,Clear,10,2013-02-21 02:55:00
10:35 PM,33.8,10.4,38,30.16,10.0,North,10.4,-,N/A,,Clear,10,2013-02-21 03:35:00
10:55 PM,33.8,10.4,38,30.15,10.0,NNE,9.2,-,N/A,,Clear,20,2013-02-21 03:55:00
11:15 PM,32.0,12.2,44,30.16,10.0,Calm,Calm,-,N/A,,Clear,0,2013-02-21 04:15:00
11:35 PM,33.8,10.4,38,30.15,10.0,North,5.8,-,N/A,,Clear,350,2013-02-21 04:35:00
11:55 PM,32.0,12.2,44,30.15,10.0,NNW,3.5,-,N/A,,Clear,340,2013-02-21 04:55:00